Location: Chervonnoye
(48.6000°N, 34.4000°E)
Time: 17:24:38
(UTC+00:00)

ITAMSAT 1 - Visible Passes

Search period start: 07 December 2021 00:00
Search period end: 17 December 2021 00:00
Orbit: 784 x 796 km, 98.9° (Epoch: 06 December)

Date Brightness Start Highest point End Pass type
(mag) Time Alt. Az. Time Alt. Az. Time Alt. Az.
07 Dec 8.7 14:45:49 10° ESE 14:49:51 23° ENE 14:53:54 10° N visible
07 Dec 8.1 16:23:43 10° S 16:28:53 62° WSW 16:34:06 10° NNW visible
08 Dec 9.6 04:32:42 10° NNE 04:37:27 34° E 04:42:08 10° SSE visible
08 Dec 9.2 14:18:01 10° E 14:20:45 14° NE 14:23:30 10° NNE visible
08 Dec 7.5 15:54:09 10° SSE 15:59:22 77° ENE 16:04:37 10° NNW visible
08 Dec 10.3 17:36:05 10° SW 17:39:24 17° W 17:42:45 10° NW visible
09 Dec 10.5 04:03:54 10° NE 04:07:39 20° E 04:11:22 10° SE visible
09 Dec 7.9 15:25:01 10° SE 15:29:58 45° ENE 15:34:57 10° N visible
09 Dec 9.5 17:05:03 10° SSW 17:09:34 29° W 17:14:08 10° NW visible
10 Dec 11.0 03:36:36 10° ENE 03:37:43 11° E 03:38:49 10° E visible
10 Dec 8.5 14:56:21 10° ESE 15:00:42 27° ENE 15:05:03 10° N visible
10 Dec 8.4 16:34:48 10° S 16:39:52 51° W 16:45:00 10° NNW visible
11 Dec 9.2 04:43:31 10° NNE 04:48:28 41° E 04:53:21 10° SSE visible
11 Dec 9.0 14:28:16 10° E 14:31:33 17° NE 14:34:51 10° NNE visible
11 Dec 7.6 16:05:04 10° SSE 16:10:19 88° WSW 16:15:35 10° NNW visible
11 Dec 10.5 17:47:55 10° WSW 17:50:30 14° W 17:53:06 10° WNW visible
12 Dec 10.2 04:14:32 10° NE 04:18:43 24° E 04:22:52 10° SE visible
12 Dec 7.7 15:35:47 10° SE 15:40:52 54° ENE 15:45:59 10° N visible
12 Dec 9.8 17:16:26 10° SSW 17:20:38 24° W 17:24:51 10° NW visible
13 Dec 10.7 03:46:20 10° ENE 03:48:49 13° E 03:51:19 10° ESE visible
13 Dec 8.3 15:06:57 10° SE 15:11:33 32° ENE 15:16:10 10° N visible
13 Dec 8.8 16:45:57 10° S 16:50:52 42° W 16:55:51 10° NNW visible
14 Dec 8.9 14:38:38 10° ESE 14:42:22 20° ENE 14:46:06 10° NNE visible
14 Dec 7.8 16:16:03 10° S 16:21:16 73° WSW 16:26:32 10° NNW visible
14 Dec 10.7 18:00:20 10° W 18:01:37 11° W 18:02:56 10° WNW visible
15 Dec 9.9 04:25:15 10° NE 04:29:46 29° E 04:34:14 10° SSE visible
15 Dec 7.6 15:46:36 10° SSE 15:51:47 66° ENE 15:56:59 10° N visible
15 Dec 10.1 17:27:55 10° SW 17:31:42 20° W 17:35:29 10° NW visible
16 Dec 10.5 03:56:39 10° NE 03:59:56 17° E 04:03:10 10° SE visible
16 Dec 8.1 15:17:36 10° SE 15:22:25 39° ENE 15:27:15 10° N visible
16 Dec 9.2 16:57:10 10° SSW 17:01:54 34° W 17:06:40 10° NNW visible
